Regional Weather Roundup
Issued by NWS Wakefield, VA

Home | Current Version | Previous Version | Text Only | Print | Product List | Glossary Off
Versions: 1 2 3 4 5 6 7 8 9 10 11 12 13 14 15 16 17 18 19 20 21 22 23 24 25 26 27

000
ASUS41 KAKQ 230214
RWRAKQ

REGIONAL WEATHER ROUNDUP
NATIONAL WEATHER SERVICE WAKEFIELD VA
1000 PM EDT TUE MAY 22 2018

Note: "fair" indicates few or no clouds below 12,000 feet with no
significant weather and/or obstructions to visibility. * = Denotes
station may not report precipitation (e.g., rain,snow,etc.),
thunder or fog.

VAZ042-051-052>054-056-230300-
NORTHERN VIRGINIA

CITY           SKY/WX    TMP DP  RH WIND       PRES   REMARKS
WASH NATIONAL  MOCLDY    69  66  90 S8        30.00R
DULLES         CLOUDY    69  69 100 S7        30.00R
FORT BELVOIR   MOCLDY    68  68 100 S5        30.01R
QUANTICO       LGT RAIN  70  69  97 S8        30.02S
FREDERICKSBRG* MOCLDY    68  68 100 SE5       30.01S
STAFFORD*      FAIR      68  68 100 S3        30.05S
WARRENTON      NOT AVBL
CULPEPER*      CLOUDY    69  67  93 CALM      30.02R
MANASSAS*      CLOUDY    69  68  96 S6        30.01R
LEESBURG*      MOCLDY    68  68 100 S7        30.01R
WINCHESTER     FAIR      68  64  88 SW5       30.01R
FRONT ROYAL*   MOCLDY    68  68 100 S3        30.01R
LURAY*         CLOUDY    68  68 100 S3        30.03R
$$

VAZ048-049-060>072-079>083-230300-
CENTRAL AND SOUTH CENTRAL VIRGINIA

CITY           SKY/WX    TMP DP  RH WIND       PRES   REMARKS
RICHMOND       LGT RAIN  69  66  90 S6        30.03R
CHESTERFIELD*  LGT RAIN  70  68  93 SE5       30.04R
PETERSBURG*    CLOUDY    72  68  88 CALM      30.04S
HANOVER        LGT RAIN  70  68  93 S6        30.04R
TAPPAHANNOCK*  FAIR      68  67  99 SE5       30.04R
QUINTON*       CLOUDY    67  67 100 CALM      30.03R
CHARLOTTSVILLE FAIR      71  68  90 S3        30.01R
GORDONSVILLE*  CLOUDY    70  70 100 S3        30.02R
ORANGE*        MOCLDY    68  66  94 S5        30.02R
LOUISA*        FAIR      68  67  96 W3        30.06R
BUMPASS*       CLOUDY    68  67  95 E3        30.02R
FARMVILLE*     TSTM     N/A N/A N/A S6        30.03R
CREWE*         MOCLDY    69  69 100 SW7G24    30.07R
FORT PICKETT*  MOCLDY    72  72 100 CALM      30.05R
CHASE CITY*    CLOUDY    71  71 100 N3        30.05R
CLARKSVILLE*   FAIR      73  73 100 CALM      30.04R
SOUTH HILL*    CLOUDY    71  71 100 CALM      30.10R
LAWRENCEVILLE* CLOUDY    71  70  97 CALM      30.05R
EMPORIA*       FAIR      70  70 100 CALM      30.06S
$$

VAZ088>098-230300-
SOUTHEAST VIRGINIA

CITY           SKY/WX    TMP DP  RH WIND       PRES   REMARKS
NORFOLK        CLOUDY    73  68  84 N8        30.06R
VIRGINIA BEACH MOCLDY    74  69  85 N10       30.05R
NORFOLK NAVAL  MOCLDY    72  65  78 E3        30.06S
WEST POINT*    MOCLDY    69  67  93 CALM      30.04R
SALUDA*        FAIR      67  67 100 CALM      30.01F
NEWPORT NEWS   FAIR      70  65  84 E5        30.04F
LANGLEY AFB    MOCLDY    69  66  89 CALM      30.05F
FORT EUSTIS    CLOUDY    71  66  85 CALM      30.02F
WILLIAMSBURG*  FAIR      72  66  83 S3        30.05F
HR EXEC AP*    FAIR      72  69  90 CALM      30.06R
FRANKLIN*      FAIR      71  71  98 CALM      30.05S
US460-WAKEFLD  FAIR      72  68  87 CALM      30.05F
$$

VAZ020-022-025-037-045-230300-
WEST CENTRAL AND SOUTHWEST VIRGINIA

CITY           SKY/WX    TMP DP  RH WIND       PRES   REMARKS
STAUNTON*      MOCLDY    68  65  90 CALM      30.07R
WAYNESBORO*    CLOUDY    68  67  96 CALM      30.05R
HOT SPRINGS VA FAIR      62  60  93 SW10      30.15R
LYNCHBURG      FAIR      67  66  97 CALM      30.06R
DANVILLE       CLOUDY    74  70  87 CALM      30.03R
SOUTH BOSTON*  CLOUDY    70  68  95 NE3       30.04R
MARTINSVILLE   FAIR      68  67  94 CALM      30.06S
ROANOKE        FAIR      69  67  93 CALM      30.07R
BLACKSBURG     FAIR      66  65  98 CALM      30.12S
DUBLIN*        FAIR      67  66  97 SW5       30.10S
MARION*        FAIR      66  66  98 CALM      30.15R
HILLSVILLE*    FAIR      64  63  96 SW8       30.11S
RICHLANDS*     FAIR      65  34  31 S5        30.12S
WISE*          FAIR      66  66 100 SW3       30.14R
ABINGDON*      FAIR      67  67  99 CALM      30.11R
$$

MDZ021>025-VAZ099-100-230300-
SOUTHERN MARYLAND AND THE DELMARVA PENINSULA

CITY           SKY/WX    TMP DP  RH WIND       PRES   REMARKS
PATUXENT RIVER MOCLDY    71  66  84 S7        30.02R
BAY BRIDGE APT FAIR      68  66  94 S9        29.99R
LEONARDTOWN    CLOUDY    66  64  94 S3        30.04R
DOVER          MOCLDY    65  65  99 SE3       29.98S
GEORGETOWN     FAIR      69  67  93 W5        30.00S
EASTON         NOT AVBL
CAMBRIDGE        N/A     68  66  94 CALM      30.01R
SALISBURY      CLOUDY    67  67 100 S5        30.01F
TANGIER        CLOUDY    70  70 100 S8        30.03F
OCEAN CITY     RAIN      68  66  93 W9        30.01R FOG
WALLOPS ISLAND LGT RAIN  69  67  93 SW10      30.04F
ACCOMACK*      RAIN      68  67  96 CALM      30.05F
$$

NCZ012>017-030>032-230300-
NORTH CENTRAL AND EASTERN NORTH CAROLINA

CITY           SKY/WX    TMP DP  RH WIND       PRES   REMARKS
ROANOKE RAPIDS FAIR      72  72 100 S3        30.05R
RALEIGH        FAIR      75  68  78 S9        30.06R
ELIZABETH CITY CLOUDY    74  72  93 S5        30.06R
AHOSKIE*       FAIR      70  70 100 CALM      30.06R
EDENTON*       FAIR      77  71  83 S10       30.07R
CURRITUCK*     NOT AVBL
KILL DEVIL HLS FAIR      73  69  86 SW5       30.07R
MANTEO         FAIR      74  69  82 SW12      30.08R
CAPE HATTERAS  FAIR      74  72  93 SW9       30.11R
TARBORO*       NOT AVBL
GOLDSBORO      FAIR      76  66  72 S6        30.06R
WASHINGTON     MOCLDY    74  67  79 CALM      30.08R
GREENVILLE     FAIR      73  70  88 S7        30.09R
NEW BERN       FAIR      71  68  90 S6        30.11R
WILMINGTON     FAIR      74  69  85 S8        30.10R
$$

VAZ048-230300-
ELSEWHERE

CITY           SKY/WX    TMP DP  RH WIND       PRES   REMARKS
HARRISBURG PA  CLOUDY    64  62  93 E5        29.97S FOG
BALTIMORE      CLOUDY    67  67 100 CALM      29.99R FOG
ANNAPOLIS        N/A    N/A N/A N/A MISG      29.98S
ANDREWS AFB    LGT RAIN  67  67  99 S9        30.00R
PHILADELPHIA   MOCLDY    62  60  93 NE6       30.00R
HENDERSON NC   FAIR      71  68  89 S5        30.04S
GREENSBORO     MOCLDY    76  64  66 SW7       30.05R
ROCKY MOUNT    FAIR      75  68  78 S8        30.06R
$$

VAZ100-230300-
MARINE

STATION/POSITION TIME  TEMP    WIND        PRES    WAVE   SWELL
                       AIR SEA DIR/SP/G            HT/PER HT/PER
                 (UTC) (F)     (DEG/KT/KT) (MB)    (FT/S) (FT/S)
BRANDYWINE LGT   0148   64     170/ 13/ 14 1015.4F
CAPE MAY NJ      0148   63 64   20/  2/  3 1015.2R
LEWES DE         0148   68 63  260/  5/  8 1015.5F
15NM E FENWICK I 0150   62 62  220/ 10/ 12 1016.2R   2/ 8   2/ 8
OCEAN-CITY-INLET 0142   70 65  280/  9/ 13 1016.7R
WACHAPREAGUE VA  0148   67 77  260/  3/  5 1017.8S
THOMAS POINT MD  0200   68 67  180/ 13/ 14 1016.4R
GOOSES REEF MD   0200   69     190/ 12/ 14 1016.3    1/ 2
COVE POINT MD    0148   68     210/ 11/ 14 1017.0R
SOLOMONS ISLAND  0148   68 71  190/  9/ 11 1016.4R
BISHOPS HEAD MD  0148   70 76  160/ 10/ 12 1016.9S
PINEY POINT MD   0148          190/  5/  6   N/A
POTOMAC MD       0200   69 71  170/  8/ 10 1016.0    1
CAMBRIDGE MD     0148   67 72              1017.2R
LEWISETTA VA     0148   69 72  200/  7/  9 1016.6F
RAPPAHANNOCK LGT 0148          220/  6/  7 1017.8F
STINGRAY PT      0150   70     210/ 10/ 10 1016.5F
YORK RVR RNG VA  0148   71     340/  4/  5 1017.9F
YORKTOWN VA      0148   70 74  140/  2/  4 1016.8F
DOMINION TERM VA 0148   76      CALM  /  3 1017.9S
KIPTOPEKE VA     0148      70  360/ 11/ 13   N/A
CAPE HENRY VA    0148   70     340/ 11/ 14   N/A
WILLOUBY STN VA  0148           20/  6/  6   N/A
S CRANEY ISL VA  0148   75      50/  2/  3 1017.7R
CAPE HENRY BUOY  0200      68                N/A     2/ 8
1ST LANDING BUOY 0200   71 71  360/  8/ 10 1017.7    1
64NM E OF VA BCH 0150   71 70  220/ 10/ 12 1018.2R   3/ 8   2/ 8
DUCK PIER NC     0148   76 65  200/ 13/ 17 1017.6R
44100 DUCK FRF   0145      65                N/A     2/ 8
44056 DUCK FRF   0130      68                N/A     2/ 8
OREGON INLET NC  0142   77 78  210/ 20/ 22 1018.2R
HATTERAS NC      0148   74 76  220/ 10/ 14 1019.1R
DIAMOND SHLS NC  0150   76 74  220/ 14/ 16 1019.9R   4/ 8   2/ 8
CAPE LOOKOUT NC  0200          210/ 10/ 12 1019.9R
$$




USA.gov is the U.S. government's official web portal to all federal, state and local government web resources and services.